Location: The C. Gantt Observatory
(33.6981°N, 81.6836°W)
Time: 09:41:16
(UTC-04:00)

Daily predictions for brighter satellites

Satellite Brightness Start Highest point End
(mag) Time Altitude Azimuth Time Altitude Azimuth Time Altitude Azimuth
Helios 1B rocket 3.1 20:55:43 10° NNE 20:59:30 34° E 21:03:16 10° SSE
Cosmos 405 Rocket 2.8 20:57:56 10° S 21:01:34 53° E 21:05:19 10° NNE
Cosmos 1536 Rocket 3.5 20:58:00 10° S 21:02:18 80° E 21:06:39 10° N
Aureole 3 Rocket 4.0 20:56:44 10° SSE 21:03:04 47° E 21:07:38 10° NNE
Cosmos 1500 3.4 20:59:29 10° N 21:03:14 75° W 21:06:58 10° S
Meteor 1-29 4.0 21:01:02 10° NE 21:03:52 25° E 21:06:41 10° SSE
OAO 2 Rocket 3.4 20:59:18 10° W 21:04:12 75° N 21:09:11 10° E
ISS -1.7 21:02:08 10° WSW 21:05:08 32° NW 21:08:08 10° NNE
Aureole 1 Rocket 2.4 21:02:43 10° S 21:06:05 50° ESE 21:09:02 10° NNE
Cosmos 1441 Rocket 3.9 21:05:51 10° SSE 21:09:10 31° E 21:12:30 10° NNE
Meteor 1-19 Rocket 4.3 21:05:13 10° S 21:10:58 67° E 21:16:40 10° NNE
Cosmos 1025 Rocket 4.0 21:12:09 10° SSE 21:15:44 27° E 21:19:19 10° NNE
Cosmos 2112 Rocket 3.9 21:11:18 10° S 21:16:30 79° ESE 21:21:43 10° NNE
USA 186 1.7 21:14:06 10° S 21:17:18 83° WSW 21:20:26 10° NNW
Spot 2 Rocket 4.0 21:18:40 10° S 21:23:38 61° WSW 21:28:37 10° NNW
Cosmos 2082 Rocket 3.5 21:25:48 14° SE 21:28:27 19° E 21:32:16 10° ENE
COSMOS 2406 4.1 21:23:09 10° SW 21:28:43 54° WNW 21:34:19 10° N
SL-27 R/B 2.8 21:26:11 10° SSW 21:29:49 71° WNW 21:33:28 10° NNE
ASTRO E2 3.5 21:27:45 10° W 21:31:27 36° SSW 21:33:48 19° SE
Cosmos 2074 Rocket 4.0 21:26:17 10° N 21:32:32 73° E 21:38:48 10° SSE
PSLV R/B 4.4 21:33:41 10° NW 21:36:33 32° NNE 21:38:46 14° ENE
Cosmos 2184 Rocket 4.0 21:30:40 10° N 21:37:01 76° E 21:43:15 10° S
Cosmos 1743 3.0 21:34:28 10° NNW 21:38:20 69° W 21:42:13 10° S
Cosmos 1680 Rocket 4.4 21:33:41 10° SSW 21:38:45 52° WNW 21:43:51 10° N
SAR-Lupe-4 3.5 21:36:18 17° SSE 21:38:59 70° ENE 21:42:34 10° N
Spot 1 4.1 21:35:59 12° SSE 21:40:11 83° ENE 21:44:30 10° N
YAOGAN 6 2.8 21:43:15 25° SE 21:44:55 47° ENE 21:48:18 10° N
Envisat 3.1 21:40:51 10° S 21:45:54 76° WSW 21:51:00 10° NNW
Cosmos 2056 Rocket 4.4 21:42:18 10° N 21:46:54 32° ENE 21:49:17 22° ESE
Resurs 01 Rocket 3.8 21:45:50 10° SSW 21:49:26 24° W 21:53:02 10° NW
SAR-Lupe-1 4.0 21:53:09 23° S 21:55:17 82° WSW 21:58:53 10° NNW
NOSS 8 (F) 4.3 21:53:26 10° SSW 21:57:05 82° ESE 22:00:35 10° NNE
Cosmos 1666 3.2 21:54:38 10° NNW 21:58:18 57° W 22:01:05 17° S
Nadezhda 1 Rocket 4.2 21:53:04 10° S 21:59:23 76° W 22:05:49 10° N
Tiangong 2 3.9 21:58:10 10° NW 22:00:21 17° N 22:02:33 10° NE
Meteor 2-9 Rocket 4.2 21:55:54 10° N 22:01:28 88° WSW 22:05:45 18° S
Cosmos 1833 Rocket 3.2 22:01:02 25° SSE 22:03:25 36° ESE 22:08:31 10° NE
MetOp-A 4.5 22:02:23 28° SE 22:04:54 48° ENE 22:10:02 10° N
Cosmos 1939 Rocket 3.6 22:03:01 16° S 22:05:52 46° W 22:09:36 10° NNW
Cosmos 405 3.2 22:06:07 10° NNW 22:09:38 69° W 22:11:00 34° S
COSMOS 2487 2.5 22:10:54 53° SE 22:11:16 57° ESE 22:14:46 10° NNE
Helios 1A 4.4 22:08:35 11° SSW 22:12:15 34° W 22:16:05 10° NNW
Terra 4.0 22:12:17 11° ENE 22:12:49 12° ENE 22:14:28 10° NE
Cosmos 1437 Rocket 2.6 22:12:36 10° N 22:16:28 73° E 22:17:17 52° SSE
SPOT 5 3.1 22:18:47 38° E 22:19:28 42° ENE 22:23:34 10° N
NOSS 8 (H) 4.3 22:17:23 15° SSW 22:20:06 84° WNW 22:23:32 10° NNE
Cosmos 2154 Rocket 4.0 22:14:55 10° N 22:21:18 89° WSW 22:25:08 26° S
SPOT 1/Viking Rocket 4.3 22:20:35 31° E 22:21:45 35° ENE 22:26:23 10° N
Cosmos 2228 3.8 22:18:41 10° NNE 22:22:36 34° E 22:22:37 34° E
ERS-1 Rocket 3.0 22:21:27 32° S 22:23:49 80° WSW 22:28:52 10° NNW
Cosmos 921 Rocket 3.3 22:19:53 10° N 22:24:13 49° ENE 22:24:47 46° E
Cosmos 1515 3.6 22:25:11 49° SSW 22:26:08 81° W 22:29:57 10° N
Cosmos 1371 Rocket 4.1 22:21:26 10° NNW 22:26:44 75° WSW 22:28:55 36° S
Hubble Space Telescope 2.8 22:24:44 10° SW 22:25:49 16° SSW 22:25:49 16° SSW
CENTAUR R/B 4.3 22:25:06 10° NW 22:32:20 36° WSW 22:38:42 14° SSW
Cosmos 1892 Rocket 3.7 22:32:13 35° SSW 22:34:02 72° W 22:38:27 10° N
SL-24 DEB 4.1 22:34:54 58° SE 22:35:38 71° E 22:40:15 10° N
Cosmos 1980 Rocket 3.9 22:36:07 10° NNE 22:40:01 19° ENE 22:41:05 18° ENE
ARGOS 3.1 22:39:41 49° SSE 22:41:12 81° ENE 22:46:39 10° N
SL-08 RB Rocket 3.5 22:44:22 69° ESE 22:44:37 71° ENE 22:49:04 10° N
OAO 2 Rocket 3.1 22:44:08 10° W 22:49:04 77° SSW 22:49:22 73° SSE
Cosmos 1606 Rocket 4.2 22:45:24 10° NNW 22:49:34 48° W 22:50:29 41° SW
CZ-3A R/B 3.9 22:51:50 10° W 22:53:27 13° WNW 22:54:34 10° NNW
Timation 2 Rocket 3.9 22:52:15 48° S 22:53:59 67° ESE 23:00:09 10° NNE
Cosmos 2341 Rocket 4.3 22:49:23 10° NNW 22:55:41 65° W 22:58:25 35° SSW
Cosmos 1726 Rocket 4.3 22:54:45 10° NNW 22:58:52 45° W 22:59:25 43° WSW
Cosmos 158 Rocket 4.3 23:02:36 51° ENE 23:02:36 51° ENE 23:07:05 10° NNE
Cosmos 1809 Rocket 4.4 22:56:01 10° N 23:02:04 64° E 23:02:48 59° ESE
Cosmos 2218 Rocket 3.8 22:59:22 10° N 23:05:33 75° E 23:06:29 63° SE
H-2A R/B 1.8 23:09:14 85° SW 23:09:18 86° WSW 23:14:21 10° NNW
Cosmos 2082 Rocket 3.0 23:07:29 14° SW 23:12:04 48° WNW 23:17:32 10° N
Cosmos 2058 Rocket 4.0 23:12:02 10° NNW 23:16:12 41° W 23:16:19 41° W
Cosmos 2278 4.0 23:12:00 10° NNW 23:17:34 55° WSW 23:18:12 52° SW
Meteor 1-22 Rocket 4.1 23:21:55 10° N 23:26:59 81° N 23:26:59 81° N
Nadezhda 3 Rocket 4.2 23:27:58 57° E 23:27:58 57° E 23:33:54 10° NNE
H-2A R/B 3.0 23:32:00 49° N 23:32:00 49° N 23:35:20 10° N
Landsat 7 4.4 23:35:41 53° WNW 23:35:41 53° WNW 23:39:40 10° NNW
Cosmos 1697 Rocket 2.7 23:30:01 10° NNW 23:35:16 77° NW 23:35:16 77° NW
Cosmos 1269 Rocket 4.3 23:36:00 65° WNW 23:36:00 65° WNW 23:41:10 10° N
SL-19 R/B 4.2 23:31:51 10° N 23:36:43 72° NNW 23:36:43 72° NNW
Tiangong 2 4.4 23:35:32 10° NW 23:36:17 14° NNW 23:36:17 14° NNW
Cosmos 1656 4.1 23:33:13 10° NNW 23:38:15 51° W 23:38:15 51° W
SL-16 R/B 3.9 23:39:20 10° N 23:43:34 22° ENE 23:43:34 22° ENE
Cosmos 1420 Rocket 4.4 23:40:51 10° NNW 23:45:12 58° NW 23:45:12 58° NW
Meteor 2-21 Rocket 4.5 23:40:56 10° NNW 23:46:56 68° W 23:46:58 68° W
Terra 2.7 23:51:10 46° NW 23:51:10 46° NW 23:54:41 10° NNW
